Regional Weather Roundup
Issued by NWS Green Bay, WI

Home | Current Version | Previous Version | Graphics & Text | Print | Product List | Glossary Off
Versions: 1 2 3 4 5 6 7 8 9 10 11 12 13 14 15 16 17 18 19 20 21 22 23 24 25 26 27 28 29 30 31 32 33 34 35 36 37 38 39 40 41 42 43 44 45 46 47 48 49 50

000
ASUS43 KGRB 271311
RWRGRB

NORTH-CENTRAL AND NORTHEAST WISCONSIN REGIONAL WEATHER ROUNDUP
NATIONAL WEATHER SERVICE GREEN BAY WI
700 AM CST MON FEB 27 2017

WIZ005-009-010>012-018-019-271400-
NORTH CENTRAL WISCONSIN

CITY           SKY/WX    TMP DP  RH WIND       PRES   REMARKS
IRONWOOD       FLURRIES  17   9  70 S10       29.97F WCI   5
MANITOWISH WTR LGT SNOW  14  13  95 SE5       29.96F WCI   6
ARBOR VITAE    FLURRIES  17  12  82 CALM        N/A
EAGLE RIVER    FLURRIES  14   8  76 CALM      29.98S
LAND O LAKES   LGT SNOW   8   5  87 CALM      30.00R
RHINELANDER    CLOUDY     1  32 100 CALM      29.98S
PHILLIPS       CLOUDY    17  13  84 CALM      29.96S
ANTIGO         CLOUDY    19  12  76 SE12      30.02S WCI   6
TOMAHAWK       CLOUDY    19  13  79 CALM      29.99S
MERRILL        NOT AVBL
$$

WIZ013-073-271400-
NORTHEAST WISCONSIN

CITY           SKY/WX    TMP DP  RH WIND       PRES   REMARKS
IRON MOUNTAIN  CLOUDY     8   3  80 CALM      30.04R
MARINETTE      PTCLDY    18  12  77 S5        30.10S
OCONTO         MOCLDY    16  13  88 CALM      30.10S
$$

WIZ017-030-035>037-045-271400-
CENTRAL WISCONSIN

CITY           SKY/WX    TMP DP  RH WIND       PRES   REMARKS
MEDFORD        CLOUDY    20  18  92 S8        29.98S
WAUSAU         CLOUDY    23  20  88 SE5       30.02R
MOSINEE        MOCLDY    21  21 100 SE7       30.04R FOG
MARSHFIELD     MOCLDY    19  17  92 S9        30.01R FOG     WCI   8
WISC RAPIDS    CLEAR     21  20  96 S3        30.06R
STEVENS POINT  CLOUDY    22  21  94 CALM      30.06R
WAUPACA        CLEAR     20  17  90 CALM      30.08S FOG
SHAWANO        MOCLDY    24  15  67 CALM      30.09S
CLINTONVILLE   MOCLDY    23  18  80 SE3       30.08S
WAUTOMA        CLEAR     14  11  87 CALM      30.09R
$$

WIZ038-039-048-051-271400-
FOX VALLEY

CITY           SKY/WX    TMP DP  RH WIND       PRES   REMARKS
NWS GREEN BAY  CLOUDY    22  18  85 E3        30.11R
APPLETON       PTCLDY    21  19  93 VRB3      30.07R
OSHKOSH        CLEAR     24  20  84 S8        30.09R
FOND DU LAC    CLEAR     24  19  81 S3        30.10R
$$

WIZ022-050-052-271400-
EAST CENTRAL WISCONSIN

CITY           SKY/WX    TMP DP  RH WIND       PRES   REMARKS
EPHRAIM        FAIR      19  11  70 CALM      30.09R
WASHINGTON ISL FAIR       9   7  90 CALM      30.10R
STURGEON BAY   CLEAR     19  13  77 E3        30.11R
MANITOWOC      PTCLDY    18  16  92 CALM      30.12R
SHEBOYGAN      PTCLDY    22  18  85 S6        30.11R
$$

LMZ563-521-522-541>543-271400-
LAKESHORE

STATION/POSITION TIME  TEMP    WIND        PRES    VSBY  WAVE
                       AIR SEA DIR/SP/G                  HT/PER
                 (UTC) (F)     (DEG/KT/KT) (MB)    (MI)  (FT/S)
SHEBOYGAN LKSHOR 1300   29     210/  5/  5 1020.5R
KEWAUNEE LKSHORE 1248   30      90/  2/  6 1019.1R
NORTHPORT PIER   1240   17        CALM     1019.6R
SISTER BAY LKSHO 1235   17        CALM       N/A
CHAMBERS ISLAND  1230   18        CALM     1018.6S
MENOMINEE LKSHOR 1248   26     120/  9/ 11 1018.3R
$$




USA.gov is the U.S. government's official web portal to all federal, state and local government web resources and services.